User: anonymous   Login
Location: Cranbrook Institute of Science
(42.5830°N, 83.2450°W)
Time: 21:52:48
(UTC-04:00)
Language:

CZ-4B R/B - Orbit

View from above orbital plane
View from above orbital plane
View from above satellite
View from above satellite

Ground track
Ground track

The orbit data is extracted from the following two-line orbital elements,

1 29093U 06015B   15243.33224338  .00005874  00000-0  17207-3 0  9992
2 29093 097.4933 331.2825 0077568 144.6381 260.3762 15.32615978516818
Epoch (UTC): 31 August 2015 07:58:25
Eccentricity: 0.0077568
inclination: 97.4933°
perigee height: 415 km
apogee height: 521 km
right ascension of ascending node: 331.2825°
argument of perigee: 144.6381°
revolutions per day: 15.32615978
mean anomaly at epoch: 260.3762°
orbit number at epoch: 51681

The dashed part of the orbit path shows where the satellite is in the earth's shadow,  

DLR